Regional Weather Roundup
Issued by NWS Charleston, SC

Current Version | Previous Version | Graphics & Text | Print | Product List | Glossary On
Versions: 1 2 3 4 5 6 7 8 9 10 11 12 13 14 15 16 17 18 19 20 21 22 23 24 25 26 27 28 29 30 31 32 33 34 35 36 37 38 39 40 41 42 43 44 45 46 47 48 49 50
000 ASUS42 KCHS 250427 RWRCHS Regional Weather Roundup National Weather Service Charleston SC 1200 AM EDT FRI MAY 25 2018 NOTE: "fair" indicates few or no clouds below 12,000 feet with no significant weather and/or obstructions to visibility. Not all stations are quality controlled. Use data with caution, especially dewpoint observations. SCZ027-030-031-034>040-042>050-250500- ...Southeast South Carolina... CITY SKY/WX TMP DP RH WIND PRES REMARKS N Charleston MOCLDY 73 73 100 CALM 30.11F Waterfront Prk N/A 77 73 87 E7 29.96F Mount Pleasant FAIR 72 72 100 CALM 30.12F Johns Island FAIR 75 73 94 CALM 30.12S Pinopolis N/A 73 73 100 CALM 30.05F Moncks Corner FAIR 72 70 94 NE3 30.12S Summerville FAIR 72 72 100 CALM 30.12F Beaufort MCAS MOCLDY 76 75 97 CALM 30.11S Beaufort Arpt FAIR 73 72 94 CALM 30.11S Hilton Head Is FAIR 75 73 94 CALM 30.11S Walterboro MOCLDY 72 72 100 CALM 30.12F FOG Allendale FAIR 72 72 100 CALM 30.11F ...Southern Midlands and Pee Dee... CITY SKY/WX TMP DP RH WIND PRES REMARKS Georgetown FAIR N/A N/A N/A CALM 30.14S Kingstree FAIR 72 70 94 CALM 30.13F Orangeburg FAIR 72 70 93 CALM 30.12F Barnwell FAIR 72 70 94 CALM 30.12S Aiken CLOUDY 70 70 100 CALM 30.15F Manning MOCLDY 68 68 100 CALM 30.13F FOG Columbia CLOUDY 74 74 100 E7 30.12S Sumter CLOUDY 72 72 100 SE3 30.12S Florence CLOUDY 73 71 93 CALM 30.14S FOG Myrtle Beach CLOUDY 74 72 93 E5 30.15S N Myrtle Beach MOCLDY 75 71 87 E3 30.14S $$ GAZ063-065-086>088-099>101-113>116-118-119-134>141-150-250500- ...Southeast Georgia... CITY SKY/WX TMP DP RH WIND PRES REMARKS Savannah Arpt CLOUDY 75 74 96 CALM 30.11S Hunter AAF FAIR 75 73 93 CALM 30.08S Fort Stewart FAIR 73 72 96 CALM 30.08S Statesboro DRIZZLE 71 70 97 CALM 30.10S Sylvania DRIZZLE 71 71 99 E3 30.12S Claxton DRIZZLE 73 72 98 CALM 30.10S ...CSRA, Central and far Southeast Georgia... CITY SKY/WX TMP DP RH WIND PRES REMARKS Thomson CLOUDY 71 69 96 S6 30.17S Augusta-Bush MOCLDY 70 70 100 SE3 30.10F Augusta-Daniel LGT RAIN 73 71 93 E3 30.12F Swainsboro CLOUDY 72 72 100 E3 30.11S Vidalia CLOUDY 72 68 88 S6 30.10R Eastman MOCLDY 73 65 75 SE5 30.11S Hazlehurst N/A 73 69 87 S5 30.09R Alma LGT RAIN 72 70 93 SE5 30.10S Waycross MOCLDY 73 69 90 W3 30.11R Jesup FAIR 73 69 89 CALM 30.10F Baxley CLOUDY 70 70 100 S3 30.10R Brunswick MOCLDY 73 70 88 CALM 30.11S Saint Simons FAIR 78 74 87 S6 30.09R $$ SCZ027-028-034-036>038-045-046-048>050-GAZ119-141-250500- ...Lake and Supplemental Coastal Observations... STATION/POSITION TIME TEMP WIND PRES WAVE SWELL AIR SEA DIR/SP/G HT/PER HT/PER/DIR (UTC) (F) (DEG/KT/KT) (MB) (FT/S) (FT/S/D) Winyah Bay 0345 74 30/ 2 1021.0S Lake Murray 0320 74 130/ 3/ 6 1019.6 ACE Basin NERRS 0345 74 CALM 1020.0S Fort Pulaski 0400 76 79 140/ 2/ 4 1019.7 Sapelo Island 0400 77 230/ 5 1019.0 $$ ANZ835-935-AMZ111-154-330-350-352-354-370-450-454-472-250500- ...C-MAN and Buoy Observations... STATION/POSITION TIME TEMP WIND PRES WAVE SWELL AIR SEA DIR/SP/G HT/PER HT/PER/DIR (UTC) (F) (DEG/KT/KT) (MB) (FT/S) (FT/S/D) Buoy 41004 0400 76 90/ 6/ 8 1019.7 Buoy 41008 0350 77 77 130/ 8/ 10 1018.6F 2/ 8 2/110/ 8 Folly Beach CMAN 0400 77 100/ 10/ 10 1020.3F Capers Nearshore 0408 77 77 110/ 8/ 12 1020.6F Fripp Nearshore 0408 78 78 130/ 8/ 12 1019.1F STATION/POSITION TIME TEMP WIND PRES WAVE SWELL AIR SEA DIR/SP/G HT/PER HT/PER/DIR (UTC) (F) (DEG/KT/KT) (MB) (FT/S) (FT/S/D) 5E St. Marys GA 0400 77 N/A 2/ 8 Frying Pan Buoy 0410 76 77 90/ 8/ 8 1020.4 Buoy 41025 0410 76 78 70/ 8/ 12 1021.4 Cape Lookout NC 0400 70/ 8/ 9 1021.3F Buoy 41002 0410 78 CALM / 2 1020.2 Buoy 41010 0410 78 79 120/ 12/ 14 1019.5 St Augustine FL 0400 78 80 160/ 9/ 10 1019.0F $$

USA.gov is the U.S. government's official web portal to all federal, state and local government web resources and services.